Regional Weather Roundup
Issued by NWS

Home | Current Version | Previous Version | Text Only | Print | Product List | Glossary On
Versions: 1 2 3 4 5 6 7 8 9 10 11 12 13 14 15 16 17 18 19 20 21 22 23 24 25 26 27 28 29 30 31 32 33 34 35 36 37 38 39 40 41 42 43 44 45 46 47 48 49 50
000
ASUS44 KOUN 011410
RWROK

WEATHER ROUNDUP FOR OKLAHOMA
NATIONAL WEATHER SERVICE NORMAN OK
900 AM CDT SUN MAY 01 2016

NOTE: "FAIR" INDICATES FEW OR NO CLOUDS BELOW 12,000 FEET WITH NO
      SIGNIFICANT WEATHER AND/OR OBSTRUCTIONS TO VISIBILITY.

OKZ001>007-009>012-014-015-017-011500-
NORTHWEST OKLAHOMA AND THE PANHANDLE

CITY           SKY/WX    TMP DP  RH WIND       PRES   REMARKS
GAGE           SUNNY     47  36  65 N22G30    30.13R
GUYMON         SUNNY     45  33  63 N29G38    30.14R
$$

OKZ016-021>023-033>039-044-045-011500-
SOUTHWEST OKLAHOMA

CITY           SKY/WX    TMP DP  RH WIND       PRES   REMARKS
LAWTON/REGL    MOSUNNY   52  38  58 N16G24    30.08R
LAWTON/FT SILL MOSUNNY   51  39  63 N17       30.07R
FREDERICK      SUNNY     53  38  56 N22G31    30.07R
CLINTON        CLOUDY    49  37  63 N15G23    30.11R
HOBART         MOSUNNY   51  38  60 N18       30.10S
ALTUS AFB      SUNNY     51  36  55 N20G26    30.08S
$$

OKZ018>020-024>031-011500-
CENTRAL OKLAHOMA

CITY           SKY/WX    TMP DP  RH WIND       PRES   REMARKS
OKLAHOMA CITY  MOSUNNY   49  39  68 NW20      30.09R
OKC/WILEY POST SUNNY     50  39  66 NW13G20   30.11R
OKC/TINKER AFB SUNNY     49  37  63 N16       30.07R
STILLWATER     SUNNY     50  40  68 NW13G21   30.09R
GUTHRIE        MOSUNNY   49  38  65 NW12G21   30.10R
$$

OKZ008-013-054>072-011500-
NORTHEAST OKLAHOMA

CITY           SKY/WX    TMP DP  RH WIND       PRES   REMARKS
TULSA          MOSUNNY   54  44  69 NW10      30.04R
TULSA/JONES    SUNNY     53  42  66 VRB6      30.05R
PONCA CITY     MOSUNNY   49  40  71 NW12G23   30.07R
BARTLESVILLE   MOSUNNY   52  42  69 VRB3      30.04F
MUSKOGEE       SUNNY     55  47  74 NW14      30.05R
$$

OKZ032-040>043-046>053-073>077-011500-
SOUTH CENTRAL/SOUTHEAST OKLAHOMA

CITY           SKY/WX    TMP DP  RH WIND       PRES   REMARKS
ARDMORE/DWNTWN SUNNY     54  37  54 N12G17    30.04S
MCALESTER      CLOUDY    55  44  66 NW15G22   30.05R
$$




USA.gov is the U.S. government's official web portal to all federal, state and local government web resources and services.